Tracking 20942 objects as of 13-Jul-2020
HD Live streaming from Space Station
objects crossing your sky now

SWAMPSAT-2

Track SWAMPSAT-2 now!
10-day predictions
SWAMPSAT-2 is classified as:


NORAD ID: 45115
Int'l Code: 2019-071E
Perigee: 457.7 km
Apogee: 474.5 km
Inclination: 51.6 °
Period: 93.8 minutes
Semi major axis: 6837 km
RCS: Unknown
Launch date: November 2, 2019
Source: United States (US)
Launch site: WALLOPS ISLAND (WLPIS)

Uplink (MHz):
Downlink (MHz): 145.875/436.350/2432.000
Beacon (MHz):
Mode: 9k6 GMSK/3Mbps QPSK
Call sign: WK2XID
Status: Active

aabbcc
Your satellite tracking list
Your tracking list is empty




NASA's NSSDC Master Catalog

Two Line Element Set (TLE):
1 45115U 19071E   20195.49940794 +.00004423 +00000-0 +13630-3 0  9996
2 45115 051.6410 236.3731 0012320 152.8989 207.2639 15.35661182025127
Source of the keplerian elements: AFSPC